Regional Weather Roundup
Issued by NWS Cleveland, OH

Home | Current Version | Previous Version | Text Only | Print | Product List | Glossary Off
Versions: 1 2 3 4 5 6 7 8 9 10 11 12 13 14 15 16 17 18 19 20 21 22 23 24 25 26 27 28 29 30 31 32 33 34 35 36 37 38 39 40 41 42 43 44 45 46 47 48 49 50

745
ASUS41 KCLE 122100
RWRCLE
OHIO REGIONAL WEATHER ROUNDUP
NATIONAL WEATHER SERVICE WILMINGTON, OH
400 PM EST FRI FEB 12 2016

NOTE: "FAIR" INDICATES FEW OR NO CLOUDS BELOW 12,000 FEET WITH NO
SIGNIFICANT WEATHER AND/OR OBSTRUCTIONS TO VISIBILITY.

OHZ001>008-015>018-024>027-034-035-043-044-122200-
   NORTHWEST OHIO

CITY           SKY/WX    TMP DP  RH WIND       PRES   REMARKS
DEFIANCE       LGT SNOW  22  15  75 NW23G30   30.02R VSB 3/4 WCI   6
FINDLAY        CLOUDY    25  15  66 W18G28    29.99S WCI  11
TOLEDO EXPRESS LGT SNOW  22  18  85 W15       29.98R VSB 3/4 WCI   9
TOLEDO EXEC    CLOUDY    26  13  57 W21G28    29.97F WCI  12
LIMA           LGT SNOW  23  17  78 W21G26    30.00S WCI   8
$$

OHZ009>014-019>023-028>033-038-089-122200-
   NORTHEAST OHIO

CITY           SKY/WX    TMP DP  RH WIND       PRES   REMARKS
CLE-HOPKINS    CLOUDY    22  11  62 W22       29.97F HAZE    WCI   6
CLE-LAKEFRONT  CLOUDY    24  12  60 SW24      29.95S WCI   8
CUY CO. ARPT   CLOUDY    23  10  58 SW16G25   29.94F WCI  10
LORAIN-ELYRIA  CLOUDY    22  12  65 W16       29.96S HAZE    WCI   8
ASHTABULA      CLOUDY    21  11  65 SW15      29.92F WCI   8
AKRON-CANTON   CLOUDY    20   8  60 SW15      29.94F WCI   6
WOOSTER        NOT AVBL
MANSFIELD      CLOUDY    22   8  55 W12G26    29.94F WCI  10
YOUNGSTOWN     LGT SNOW  20  10  65 SW13      29.92F WCI   7
$$

OHZ042-051>053-060>062-070>072-077>081-122200-
  SOUTHWEST OHIO

CITY           SKY/WX    TMP DP  RH WIND       PRES   REMARKS
CINC-COVINGTON CLOUDY    28  17  63 W16G22    30.07F WCI  16
CINC-LUNKEN    CLOUDY    29  17  61 W12       30.11S WCI  19
HAMILTON       CLOUDY    29  15  56 NW16      30.10S WCI  17
DAYTON         NOT AVBL
WRIGHT-PAT AFB CLOUDY    26  13  56 W17       30.04S WCI  14
DAYTON GENERAL CLOUDY    26  12  55 W12       30.04S WCI  16
WILMINGTON     CLOUDY    25  16  68 W15       30.03S WCI  13
$$

OHZ036-037-039>041-045>050-054>059-063>069-073>076-082>088-122200-
  CENTRAL AND SOUTHEAST OHIO

CITY           SKY/WX    TMP DP  RH WIND       PRES   REMARKS
COLUMBUS       CLOUDY    24  11  57 W15       30.02F WCI  11
OSU AIRPORT    CLOUDY    24  12  60 W18       30.01S WCI  10
BOLTON FIELD   NOT AVBL
RICKENBACK AFB NOT AVBL
NEWARK         CLOUDY    24  12  60 W8        30.00F WCI  15
MARION         CLOUDY    24  11  57 W17G23    29.99S WCI  11
LANCASTER      LGT SNOW  24  17  74 W10       30.03S WCI  14
ZANESVILLE     CLOUDY    24  12  60 W9        30.01S WCI  14
NEW PHILLY     CLOUDY    22   9  57 SW10G18   30.00F WCI  11
$$




USA.gov is the U.S. government's official web portal to all federal, state and local government web resources and services.